ONEWEB-0094, 45450

Orbit data source: Space-Track

ONEWEB-0094, 45450 is a payload satellite owned by One Web (UK) in LEO that was launched on Sat, 21 Mar 2020 UTC via a SOYUZ-2-1B launch vehicle from the Tyuratam Missile And Space Complex (TTMTR). Payload-class satellites include a variety of spacecraft equipped with specific instruments for various scientific and technological missions. These include communications satellites like Starlink; space stations such as the ISS; scientific satellites like the Hubble; Earth observation satellites from companies like Planet Labs, Umbra, and HawkEye 360; GPS; miniature CubeSats for education and research; and military/defense satellites.

Loading next visibility...
Identifier
45450, 2020-020AC
Orbit
LEO
Country
Flag of UKUK
Related business
Manufacturer
One Web
Mission
Operational Commercial Communications
Bus & Motor
ARROW, Unknown motor
Mass
148 kg wet, ~140 kg dry
Launch date (UTC)
2020-03-21 (5 years ago)
Launch vehicle
SOYUZ-2-1B
Launch site
Tyuratam Missile And Space Complex (TTMTR)
Object type
Payload
Rocket body
Debris
Shape & HBR
Trap Box + 2 Pan, 2.5 m
Radar Cross Section
2.957 m², Medium (>0.1 m² and < 1m²)

Expand to show TLE details & history
Last TLE update: 1 day ago

TLE from 1 day ago
0 ONEWEB-0094
1 45450U 20020AC  25260.97176770  .00000043  00000-0  77453-4 0  9998
2 45450  87.9053  59.9763 0001732  91.5038 268.6292 13.17649213270461
Epoch: 2025-09-17T23:19Z
TLE epoch observation values (Epoch: 2025-09-17T23:19:20.729Z)
Latitude
-0°
Longitude
72.99987°
Altitude
1,196.642 km
Speed
7.255 km/s
True Right ascension
03h 59m 54s
True Declination
0° 00' 00"
Sunlit
Object was in daylight at epoch
Visualization orbit readout
Latitude
Unknown
Longitude
Unknown
Altitude
Unknown
Speed
Unknown
Apparent Right ascension
Unknown
Apparent Declination
Unknown
Sunlit
N/A
Visualization observer readout
Local Sidereal Time
21:29:39
Azimuth
Unknown
Elevation
Unknown
Doppler factor
Unknown
Orbital elements
Apogee altitude
1,192.132 km
Perigee altitude
1,189.51 km
Semi-major axis
7,568.958 km
Eccentricity
0.00017
Inclination
87.9053°
RAAN
59.9763°
Arg. of periapsis
91.5038°
True anomaly
268.60936°
Mean anomaly
268.6292°
Eccentric anomaly
268.61928°
Mean motion
3.29601 °/min
Orbital period
109.22 mins
BSTAR
0.000077453
Loading maneuver chart data...
Computing Atmospheric mass density...
Loading historical data...
Loading historical data...
Loading historical data...
Loading historical data...
Loading historical data...
Loading historical data...
Loading historical data...

Documentation

Showing up to 5 results
|